Location: Chiroubles
(46.1812°N, 4.6660°E)
Time: 06:45:49
(UTC+00:00)

SR - All Passes

Search period start: 27 November 2020 00:00
Search period end: 07 December 2020 00:00
Orbit: 579 x 876 km, 66.7° (Epoch: 26 November)

Date Brightness Start Highest point End Pass type
(mag) Time Alt. Az. Time Alt. Az. Time Alt. Az.
27 Nov - 01:35:27 10° NNW 01:39:29 22° NE 01:43:43 10° E night (unlit)
27 Nov - 03:16:49 10° NW 03:22:07 83° WSW 03:27:49 10° SSE visible
27 Nov - 05:00:49 10° WNW 05:03:32 14° WSW 05:06:19 10° SW visible
27 Nov - 17:50:23 10° S 17:54:17 34° ESE 17:58:26 10° NE visible
27 Nov - 19:32:22 10° WSW 19:36:19 32° NW 19:40:33 10° NNE visible
28 Nov - 00:46:17 10° N 00:49:12 15° NNE 00:52:13 10° ENE night (unlit)
28 Nov - 02:27:09 10° NNW 02:32:20 56° NE 02:37:53 10° SE visible
28 Nov - 04:09:43 10° NW 04:14:09 27° WSW 04:18:49 10° SSW visible
28 Nov - 17:02:10 10° SSE 17:04:56 17° ESE 17:07:48 10° ENE visible
28 Nov - 18:42:05 10° SW 18:46:22 60° NW 18:51:01 10° NNE visible
28 Nov - 20:27:15 10° WNW 20:29:31 13° NNW 20:31:54 10° N visible
28 Nov - 23:57:56 10° NNE 23:58:45 10° NNE 23:59:33 10° NNE night (unlit)
29 Nov - 01:37:38 10° NNW 01:42:23 33° NE 01:47:25 10° ESE night (unlit)
29 Nov - 03:19:29 10° NW 03:24:38 49° WSW 03:30:06 10° S visible
29 Nov - 17:52:21 10° SSW 17:56:39 68° ESE 18:01:16 10° NE visible
29 Nov - 19:35:50 10° W 19:39:13 21° NW 19:42:48 10° N visible
30 Nov - 00:48:17 10° N 00:52:15 21° NE 00:56:27 10° E night (unlit)
30 Nov - 02:29:37 10° NW 02:34:58 88° SW 02:40:41 10° SSE night (unlit)
30 Nov - 04:13:24 10° WNW 04:16:25 15° WSW 04:19:30 10° SW night (unlit)
30 Nov - 17:03:16 10° S 17:07:07 32° ESE 17:11:13 10° NE visible
30 Nov - 18:45:04 10° WSW 18:49:05 34° NW 18:53:26 10° NNE visible
30 Nov - 23:59:08 10° N 00:01:58 14° NNE 00:04:53 10° ENE night (unlit)
01 Dec - 01:39:58 10° NNW 01:45:09 53° NE 01:50:42 10° SE night (unlit)
01 Dec - 03:22:27 10° NW 03:27:01 28° WSW 03:31:49 10° SSW night (unlit)
01 Dec - 16:15:11 10° SE 16:17:47 16° ESE 16:20:28 10° ENE daylight
01 Dec - 17:54:51 10° SW 17:59:10 64° NW 18:03:52 10° NNE visible
01 Dec - 19:39:49 10° WNW 19:42:17 14° NNW 19:44:50 10° N visible
01 Dec - 23:11:02 10° NNE 23:11:29 10° NNE 23:11:57 10° NNE night (unlit)
02 Dec - 00:50:28 10° NNW 00:55:10 32° NE 01:00:11 10° ESE night (unlit)
02 Dec - 02:32:16 10° NW 02:37:29 52° WSW 02:43:01 10° SSE night (unlit)
02 Dec - 17:05:10 10° SSW 17:09:28 63° ESE 17:14:05 10° NE visible
02 Dec - 18:48:29 10° W 18:51:59 22° NW 18:55:41 10° NNE visible
03 Dec - 00:01:07 10° N 00:05:02 21° NE 00:09:10 10° E night (unlit)
03 Dec - 01:42:25 10° NNW 01:47:48 88° ENE 01:53:32 10° SSE night (unlit)
03 Dec - 03:26:01 10° WNW 03:29:16 16° WSW 03:32:38 10° SW night (unlit)
03 Dec - 16:16:09 10° S 16:19:57 30° ESE 16:23:59 10° NE daylight
03 Dec - 17:57:47 10° WSW 18:01:52 36° NW 18:06:17 10° NNE visible
03 Dec - 19:44:55 10° NNW 19:45:28 10° NNW 19:46:00 10° NNW visible
03 Dec - 23:11:59 10° N 23:14:43 14° NNE 23:17:32 10° ENE night (unlit)
04 Dec - 00:52:47 10° NNW 00:57:57 51° NE 01:03:30 10° SE night (unlit)
04 Dec - 02:35:11 10° NW 02:39:52 30° WSW 02:44:48 10° S night (unlit)
04 Dec - 15:28:13 10° SE 15:30:37 15° ESE 15:33:07 10° ENE daylight
04 Dec - 17:07:36 10° SW 17:11:58 69° NW 17:16:42 10° NNE visible
04 Dec - 18:52:23 10° WNW 18:55:01 15° NNW 18:57:46 10° N visible
05 Dec - 00:03:17 10° NNW 00:07:58 31° NE 00:12:56 10° ESE night (unlit)
05 Dec - 01:45:03 10° NW 01:50:19 55° WSW 01:55:55 10° SSE night (unlit)
05 Dec - 16:17:59 10° SSW 16:22:16 59° ESE 16:26:53 10° NE daylight
05 Dec - 18:01:08 10° W 18:04:44 23° NW 18:08:34 10° NNE visible
05 Dec - 23:13:57 10° N 23:17:49 20° NE 23:21:51 10° E night (unlit)
06 Dec - 00:55:13 10° NNW 01:00:37 84° ENE 01:06:23 10° SE night (unlit)
06 Dec - 02:38:38 10° WNW 02:42:08 17° WSW 02:45:45 10° SW night (unlit)
06 Dec - 15:29:03 10° S 15:32:46 28° ESE 15:36:44 10° NE daylight
06 Dec - 17:10:29 10° WSW 17:14:39 38° NW 17:19:08 10° NNE visible
06 Dec - 18:57:06 10° NW 18:58:12 11° NNW 18:59:17 10° N visible
06 Dec - 22:24:50 10° N 22:27:28 14° NNE 22:30:11 10° ENE night (unlit)
